TimeEDT,TemperatureF,Dew PointF,Humidity,Sea Level PressureIn,VisibilityMPH,Wind Direction,Wind SpeedMPH,Gust SpeedMPH,PrecipitationIn,Events,Conditions,WindDirDegrees,DateUTC
12:54 AM,60.1,55.9,86,30.06,6.0,North,12.7,-,N/A,,Overcast,350,2012-10-09 04:54:00
1:54 AM,61.0,57.0,87,30.06,9.0,NNW,9.2,-,N/A,,Overcast,340,2012-10-09 05:54:00
2:54 AM,62.1,57.9,86,30.06,10.0,North,6.9,-,N/A,,Overcast,360,2012-10-09 06:54:00
3:54 AM,63.0,57.9,84,30.05,7.0,NNW,9.2,-,0.00,Rain,Light Rain,330,2012-10-09 07:54:00
4:54 AM,63.0,59.0,87,30.04,7.0,NNW,11.5,-,0.00,Rain,Light Rain,330,2012-10-09 08:54:00
5:54 AM,63.0,59.0,87,30.04,10.0,NNW,11.5,-,0.01,,Overcast,340,2012-10-09 09:54:00
6:54 AM,62.1,57.9,86,30.05,9.0,NW,8.1,-,0.00,,Overcast,320,2012-10-09 10:54:00
7:19 AM,62.6,57.2,82,30.06,8.0,NW,8.1,-,N/A,,Overcast,310,2012-10-09 11:19:00
7:54 AM,62.1,57.9,86,30.07,4.0,NW,8.1,-,N/A,,Overcast,310,2012-10-09 11:54:00
8:54 AM,62.1,57.9,86,30.09,2.5,NW,9.2,-,0.00,,Overcast,320,2012-10-09 12:54:00
9:54 AM,63.0,59.0,87,30.09,2.0,NNW,11.5,-,N/A,,Overcast,340,2012-10-09 13:54:00
10:50 AM,64.4,60.8,88,30.09,2.0,North,12.7,-,N/A,,Overcast,350,2012-10-09 14:50:00
10:54 AM,64.0,60.1,87,30.09,2.0,North,15.0,-,N/A,,Overcast,350,2012-10-09 14:54:00
11:54 AM,64.9,60.1,84,30.08,4.0,North,12.7,-,N/A,,Haze,350,2012-10-09 15:54:00
12:54 PM,64.9,59.0,81,30.07,7.0,North,12.7,-,N/A,,Overcast,350,2012-10-09 16:54:00
1:54 PM,64.9,59.0,81,30.05,10.0,North,9.2,-,N/A,,Overcast,350,2012-10-09 17:54:00
2:54 PM,66.0,60.1,81,30.05,10.0,North,8.1,-,N/A,,Overcast,350,2012-10-09 18:54:00
3:54 PM,66.0,59.0,78,30.05,10.0,North,8.1,-,N/A,,Overcast,10,2012-10-09 19:54:00
4:54 PM,64.9,59.0,81,30.05,10.0,North,9.2,-,N/A,,Overcast,360,2012-10-09 20:54:00
5:54 PM,64.9,60.1,84,30.04,10.0,North,9.2,-,N/A,,Overcast,350,2012-10-09 21:54:00
6:54 PM,64.9,60.1,84,30.04,10.0,NNW,10.4,-,N/A,,Overcast,340,2012-10-09 22:54:00
7:30 PM,64.4,60.8,88,30.04,6.0,NNW,8.1,-,N/A,,Haze,330,2012-10-09 23:30:00
7:54 PM,64.0,60.1,87,30.05,7.0,NNW,8.1,-,N/A,,Overcast,340,2012-10-09 23:54:00
8:54 PM,64.0,60.1,87,30.06,8.0,WNW,4.6,-,N/A,,Overcast,290,2012-10-10 00:54:00
9:54 PM,63.0,59.0,87,30.06,7.0,WNW,6.9,-,N/A,,Overcast,300,2012-10-10 01:54:00
10:54 PM,63.0,59.0,87,30.05,5.0,WNW,5.8,-,N/A,,Overcast,300,2012-10-10 02:54:00
11:54 PM,63.0,59.0,87,30.04,4.0,NW,3.5,-,N/A,,Overcast,310,2012-10-10 03:54:00